Location: Newark
(52.9300°N, 3.3400°W)
Time: 08:40:35
(UTC+00:00)

PicSat - Visible Passes

Search period start: 11 May 2021 00:00
Search period end: 21 May 2021 00:00
Orbit: 479 x 489 km, 97.4° (Epoch: 10 May)

Date Brightness Start Highest point End Pass type
(mag) Time Alt. Az. Time Alt. Az. Time Alt. Az.
11 May ? 21:34:22 18° SE 21:36:44 42° ENE 21:40:09 10° N visible
11 May ? 23:08:43 15° SW 23:10:22 19° W 23:13:01 10° NW visible
12 May ? 21:09:36 11° ESE 21:12:23 25° ENE 21:15:23 10° N visible
12 May ? 22:43:57 21° SSW 22:45:44 33° W 22:49:02 10° NNW visible
13 May ? 20:45:58 10° E 20:48:09 15° ENE 20:50:20 10° NNE visible
13 May ? 22:19:10 24° S 22:21:10 62° WSW 22:24:46 10° NNW visible
14 May ? 21:54:24 21° SSE 21:56:41 70° ENE 22:00:18 10° N visible
14 May ? 23:29:03 10° WSW 23:30:36 12° W 23:32:09 10° WNW visible
15 May ? 21:29:37 15° SE 21:32:17 38° ENE 21:35:40 10° N visible
15 May ? 23:03:58 15° SW 23:05:53 21° W 23:08:42 10° NW visible
16 May ? 21:05:06 10° ESE 21:07:58 23° ENE 21:10:50 10° N visible
16 May ? 22:39:11 20° SSW 22:41:14 37° W 22:44:38 10° NNW visible
17 May ? 22:14:24 21° S 22:16:40 70° WSW 22:20:18 10° NNW visible
18 May ? 21:49:36 17° SSE 21:52:12 62° ENE 21:55:47 10° N visible
18 May ? 23:24:08 10° WSW 23:26:02 14° W 23:27:57 10° WNW visible
19 May ? 21:24:49 12° SE 21:27:47 34° ENE 21:31:06 10° N visible
19 May ? 22:59:10 14° SW 23:01:19 23° W 23:04:18 10° NW visible
20 May ? 21:00:43 10° ESE 21:03:27 21° ENE 21:06:13 10° NNE visible
20 May ? 22:34:22 18° SSW 22:36:40 42° W 22:40:08 10° NNW visible
